| time (UTC) | temp C | wind direction | speed KPH | gust KPH | rain 1hr cm | rain 24hr cm | rain mn cm | humidity % | barometer mb |
| 20260831021539 | 22 | 60 | 6.4 | 8.0 | 0.00 | 0.00 | 0.00 | 34 | 1013.6 |
| 20260831020022 | 23 | 90 | 8.0 | 14.5 | 0.00 | 0.00 | 0.00 | 33 | 1013.5 |
| 20260831014522 | 23 | 93 | 14.5 | 17.7 | 0.00 | 0.00 | 0.00 | 31 | 1013.5 |
| 20260831013008 | 25 | 113 | 6.4 | 12.9 | 0.00 | 0.00 | 0.00 | 25 | 1013.5 |
| 20260831011506 | 25 | 198 | 4.8 | 12.9 | 0.00 | 0.00 | 0.00 | 24 | 1013.4 |
| 20260831010007 | 25 | 225 | 8.0 | 17.7 | 0.00 | 0.00 | 0.00 | 22 | 1013.4 |
| 20260831004509 | 26 | 195 | 12.9 | 20.9 | 0.00 | 0.00 | 0.00 | 23 | 1013.5 |
| 20260831003007 | 26 | 207 | 14.5 | 22.5 | 0.00 | 0.00 | 0.00 | 22 | 1013.5 |
| 20260831001508 | 26 | 248 | 17.7 | 29.0 | 0.00 | 0.00 | 0.00 | 21 | 1013.6 |
| 20260831000005 | 26 | 174 | 8.0 | 17.7 | 0.00 | 0.00 | 0.00 | 21 | 1013.6 |
| 20260830234608 | 26 | 217 | 19.3 | 27.4 | 0.00 | 0.00 | 0.00 | 21 | 1013.8 |
| 20260830233104 | 26 | 219 | 17.7 | 27.4 | 0.00 | 0.00 | 0.00 | 24 | 1014.0 |
| 20260830231556 | 25 | 212 | 19.3 | 30.6 | 0.00 | 0.00 | 0.00 | 25 | 1014.1 |
| 20260830230041 | 25 | 191 | 9.7 | 20.9 | 0.00 | 0.00 | 0.00 | 26 | 1014.3 |
| 20260830224538 | 25 | 272 | 11.3 | 19.3 | 0.00 | 0.00 | 0.00 | 26 | 1014.5 |
| 20260830223035 | 24 | 204 | 11.3 | 24.1 | 0.00 | 0.00 | 0.00 | 30 | 1014.7 |
| 20260830221533 | 25 | 188 | 11.3 | 24.1 | 0.00 | 0.00 | 0.00 | 30 | 1014.9 |
| 20260830220053 | 23 | 191 | 8.0 | 30.6 | 0.00 | 0.00 | 0.00 | 31 | 1015.2 |
| 20260830214528 | 23 | 173 | 8.0 | 22.5 | 0.00 | 0.00 | 0.00 | 34 | 1015.4 |
| 20260830213026 | 23 | 139 | 6.4 | 20.9 | 0.00 | 0.00 | 0.00 | 34 | 1015.6 |
| 20260830211527 | 23 | 228 | 20.9 | 29.0 | 0.00 | 0.00 | 0.00 | 35 | 1015.9 |
| 20260830210003 | 23 | 182 | 17.7 | 25.7 | 0.00 | 0.00 | 0.00 | 35 | 1015.9 |
| 20260830204616 | 22 | 222 | 6.4 | 25.7 | 0.00 | 0.00 | 0.00 | 36 | 1016.0 |
| 20260830203042 | 22 | 186 | 12.9 | 27.4 | 0.00 | 0.00 | 0.00 | 37 | 1016.2 |
| 20260830201548 | 22 | 204 | 16.1 | 29.0 | 0.00 | 0.00 | 0.00 | 37 | 1016.3 |
| 20260830200032 | 21 | 195 | 12.9 | 29.0 | 0.00 | 0.00 | 0.00 | 39 | 1016.4 |
| 20260830194517 | 21 | 257 | 14.5 | 24.1 | 0.00 | 0.00 | 0.00 | 39 | 1016.5 |
| 20260830193056 | 21 | 297 | 9.7 | 22.5 | 0.00 | 0.00 | 0.00 | 40 | 1016.8 |
| 20260830191619 | 21 | 243 | 16.1 | 27.4 | 0.00 | 0.00 | 0.00 | 42 | 1016.9 |
| 20260830190053 | 20 | 195 | 16.1 | 27.4 | 0.00 | 0.00 | 0.00 | 42 | 1017.1 |
| 20260830184538 | 20 | 253 | 12.9 | 29.0 | 0.00 | 0.00 | 0.00 | 44 | 1017.1 |
| 20260830183035 | 20 | 259 | 14.5 | 27.4 | 0.00 | 0.00 | 0.00 | 46 | 1017.3 |
| 20260830181533 | 19 | 203 | 19.3 | 32.2 | 0.00 | 0.00 | 0.00 | 46 | 1017.3 |
| 20260830180037 | 19 | 276 | 17.7 | 30.6 | 0.00 | 0.00 | 0.00 | 47 | 1017.3 |
| 20260830174534 | 19 | 243 | 20.9 | 27.4 | 0.00 | 0.00 | 0.00 | 46 | 1017.4 |
| 20260830173029 | 19 | 235 | 22.5 | 29.0 | 0.00 | 0.00 | 0.00 | 47 | 1017.4 |
| 20260830171627 | 18 | 190 | 20.9 | 33.8 | 0.00 | 0.00 | 0.00 | 50 | 1017.3 |
| 20260830170003 | 18 | 245 | 17.7 | 25.7 | 0.00 | 0.00 | 0.00 | 51 | 1017.5 |
| 20260830164600 | 17 | 224 | 19.3 | 27.4 | 0.00 | 0.00 | 0.00 | 52 | 1017.6 |
| 20260830163042 | 17 | 222 | 22.5 | 29.0 | 0.00 | 0.00 | 0.00 | 55 | 1017.7 |
| 20260830161542 | 17 | 255 | 20.9 | 29.0 | 0.00 | 0.00 | 0.00 | 56 | 1017.9 |
| 20260830160027 | 16 | 218 | 20.9 | 29.0 | 0.00 | 0.00 | 0.00 | 58 | 1017.8 |
| 20260830154516 | 16 | 232 | 22.5 | 30.6 | 0.00 | 0.00 | 0.00 | 59 | 1017.7 |
| 20260830153055 | 16 | 225 | 20.9 | 29.0 | 0.00 | 0.00 | 0.00 | 60 | 1017.7 |
| 20260830151551 | 15 | 217 | 24.1 | 32.2 | 0.00 | 0.00 | 0.00 | 61 | 1017.5 |
| 20260830150039 | 15 | 240 | 24.1 | 32.2 | 0.00 | 0.00 | 0.00 | 61 | 1017.5 |
| 20260830144530 | 15 | 273 | 20.9 | 30.6 | 0.00 | 0.00 | 0.00 | 60 | 1017.4 |
| 20260830143012 | 15 | 252 | 16.1 | 24.1 | 0.00 | 0.00 | 0.00 | 58 | 1017.4 |
| 20260830141514 | 15 | 245 | 11.3 | 17.7 | 0.00 | 0.00 | 0.00 | 56 | 1017.5 |
| 20260830140056 | 14 | 266 | 16.1 | 20.9 | 0.00 | 0.00 | 0.00 | 58 | 1017.2 |
| 20260830134547 | 13 | 256 | 14.5 | 22.5 | 0.00 | 0.00 | 0.00 | 59 | 1017.3 |
| 20260830133024 | 12 | 272 | 11.3 | 29.0 | 0.00 | 0.00 | 0.00 | 63 | 1017.3 |
| 20260830131541 | 12 | 225 | 11.3 | 17.7 | 0.00 | 0.00 | 0.00 | 64 | 1017.2 |
| 20260830130003 | 12 | 259 | 16.1 | 30.6 | 0.00 | 0.00 | 0.00 | 62 | 1017.2 |
| 20260830124600 | 13 | 271 | 12.9 | 22.5 | 0.00 | 0.00 | 0.00 | 60 | 1017.0 |
| 20260830123041 | 14 | 255 | 17.7 | 24.1 | 0.00 | 0.00 | 0.00 | 57 | 1016.9 |
| 20260830121541 | 13 | 262 | 14.5 | 19.3 | 0.00 | 0.00 | 0.00 | 58 | 1016.9 |
| 20260830120024 | 14 | 271 | 12.9 | 20.9 | 0.00 | 0.00 | 0.00 | 57 | 1016.8 |
| 20260830114527 | 14 | 276 | 11.3 | 19.3 | 0.00 | 0.00 | 0.00 | 56 | 1016.8 |
| 20260830113016 | 14 | 259 | 8.0 | 17.7 | 0.00 | 0.00 | 0.00 | 56 | 1016.8 |
| 20260830111509 | 14 | 267 | 9.7 | 20.9 | 0.00 | 0.00 | 0.00 | 56 | 1016.6 |
| 20260830110012 | 14 | 277 | 8.0 | 17.7 | 0.00 | 0.00 | 0.00 | 56 | 1016.5 |
| 20260830104508 | 14 | 269 | 9.7 | 16.1 | 0.00 | 0.00 | 0.00 | 56 | 1016.7 |
| 20260830103008 | 13 | 276 | 11.3 | 16.1 | 0.00 | 0.00 | 0.00 | 57 | 1016.7 |
| 20260830101506 | 13 | 281 | 14.5 | 20.9 | 0.00 | 0.00 | 0.00 | 57 | 1016.5 |
| 20260830100005 | 13 | 247 | 11.3 | 22.5 | 0.00 | 0.00 | 0.00 | 57 | 1016.5 |
| 20260830094504 | 13 | 244 | 14.5 | 19.3 | 0.00 | 0.00 | 0.00 | 59 | 1016.5 |
| 20260830093102 | 13 | 264 | 12.9 | 17.7 | 0.00 | 0.00 | 0.00 | 60 | 1016.4 |
| 20260830091542 | 13 | 281 | 11.3 | 16.1 | 0.00 | 0.00 | 0.00 | 58 | 1016.3 |
| 20260830090039 | 13 | 271 | 4.8 | 9.7 | 0.00 | 0.00 | 0.00 | 55 | 1016.2 |
| 20260830084520 | 14 | 188 | 0.0 | 8.0 | 0.00 | 0.00 | 0.00 | 50 | 1016.1 |
| 20260830083021 | 15 | 9 | 0.0 | 9.7 | 0.00 | 0.00 | 0.00 | 49 | 1015.9 |
| 20260830081524 | 15 | 316 | 4.8 | 8.0 | 0.00 | 0.00 | 0.00 | 48 | 1016.0 |
| 20260830080009 | 16 | 314 | 1.6 | 11.3 | 0.00 | 0.00 | 0.00 | 47 | 1016.0 |
| 20260830074513 | 16 | 302 | 6.4 | 9.7 | 0.00 | 0.00 | 0.00 | 47 | 1015.8 |
| 20260830073005 | 16 | 278 | 4.8 | 8.0 | 0.00 | 0.00 | 0.00 | 46 | 1015.8 |
| 20260830071505 | 16 | 273 | 3.2 | 12.9 | 0.00 | 0.00 | 0.00 | 46 | 1015.7 |
| 20260830070005 | 16 | 269 | 4.8 | 11.3 | 0.00 | 0.00 | 0.00 | 45 | 1015.9 |
| 20260830064508 | 16 | 267 | 3.2 | 9.7 | 0.00 | 0.00 | 0.00 | 45 | 1015.7 |
| 20260830063002 | 17 | 278 | 6.4 | 9.7 | 0.00 | 0.00 | 0.00 | 43 | 1015.6 |
| 20260830061547 | 17 | 318 | 4.8 | 14.5 | 0.00 | 0.00 | 0.00 | 41 | 1015.5 |
| 20260830060051 | 18 | 6 | 12.9 | 16.1 | 0.00 | 0.00 | 0.00 | 41 | 1015.5 |
| 20260830054526 | 18 | 359 | 11.3 | 17.7 | 0.00 | 0.00 | 0.00 | 40 | 1015.7 |
| 20260830053026 | 18 | 333 | 12.9 | 29.0 | 0.00 | 0.00 | 0.00 | 39 | 1015.6 |
| 20260830051509 | 18 | 359 | 16.1 | 29.0 | 0.00 | 0.00 | 0.00 | 39 | 1015.7 |
| 20260830050008 | 18 | 348 | 14.5 | 27.4 | 0.00 | 0.00 | 0.00 | 39 | 1015.6 |
| 20260830044559 | 18 | 343 | 20.9 | 30.6 | 0.00 | 0.00 | 0.00 | 38 | 1015.4 |
| 20260830043047 | 19 | 355 | 19.3 | 30.6 | 0.00 | 0.00 | 0.00 | 38 | 1015.4 |
| 20260830041547 | 18 | 352 | 19.3 | 32.2 | 0.00 | 0.00 | 0.00 | 39 | 1015.2 |
| 20260830040030 | 18 | 353 | 12.9 | 29.0 | 0.00 | 0.00 | 0.00 | 41 | 1015.0 |
| 20260830034511 | 18 | 360 | 19.3 | 29.0 | 0.00 | 0.00 | 0.00 | 41 | 1014.8 |
| 20260830033013 | 19 | 10 | 16.1 | 27.4 | 0.00 | 0.00 | 0.00 | 41 | 1014.5 |
| 20260830031506 | 19 | 352 | 11.3 | 24.1 | 0.00 | 0.00 | 0.00 | 40 | 1014.2 |
| 20260830030011 | 19 | 1 | 17.7 | 27.4 | 0.00 | 0.00 | 0.00 | 40 | 1014.0 |
| 20260830024504 | 20 | 8 | 12.9 | 22.5 | 0.00 | 0.00 | 0.00 | 38 | 1013.8 |
| 20260830023002 | 20 | 4 | 17.7 | 27.4 | 0.00 | 0.00 | 0.00 | 38 | 1013.7 |